Terug naar catalogus

CZ-3C DEB

ActiefGTO
NORAD 39351·DEBRIS·🇨🇳 China

Gelanceerd Oct 31, 2010 vanaf Xichang Satellite Launch Center

Loading…

TLE

VerouderdSource: Space-Track

Epoch: Sep 14, 2026, 03:51 UTC

1 39351U 10057R   26257.16080694  .00000131  00000-0  57059-2 0  9993
2 39351  20.8132  74.1552 7101750 187.7718 356.4356  2.26508806107033

Volg CZ-3C DEB in realtime met AllMySat

Download on the App Store